1st Responders/1st Detectors/Storm Spotters Weather Summary for Hopkins County, KY

Forecast Maps


Reg. NEXRAD Animation


National Fire Danger: Day 1 & 2 Map

Current NWS Watch/Warnings

SPC Convective Day 1 Outlook


Day 2 Outlook

(Click images to enlarge|Page will refresh every 5 minutes)
UK Ag. Weather Center Desktop Severe Weather Service[HERE]
Hopkins County, KY Hazardous Weather Outlook Webcast
(9 AM to 9 PM Mon-Fri)
[Fast]
[Dial-up]


UKAWC 1st Detectors/1st Responders Precision Weather Forecast For HOPKINS County, Kentucky
(based on the NWS County Digital Forecast)

ISSUED AT 13:00 UTC ON THURSDAY JUN 30 2022
DAY THURSDAY
CDT 3HR 9A 10A 11A NOON 1P 2P 3P 4P 5P 6P
MAX/MIN -- -- -- -- -- -- -- -- -- 90°
TEMP 79° 83° 85° 86° 88° 90° 90° 90° 90° 88°
SKY COVER 2% 3% 2% 4% 16% 32% 37% 23% 25% 13%
Clouds
DEW PT 67° 68° 68° 68° 68° 67° 67° 68° 68° 68°
RH 64% 60% 57% 55% 52% 48% 47% 49% 49% 53%
POP 12HR -- -- -- -- -- -- -- -- -- --
RAIN/SNOW (liq.equ) -- -- -- -- 0.00in -- -- -- -- --
SNOWFALL -- -- -- -- 0in -- -- -- -- --
WIND SPEED(MPH) 5 5 6 5 6 6 7 7 6 6
WIND Gust(MPH) 8 8 9 8 9 9 10 10 9 9
WIND DIR S S S S S S SW S S S
DEW -- -- -- -- -- -- -- -- -- --
HeatIndex 82 87 90 91 93 94 95 94 94 92
Rain Showers -- -- -- -- -- -- -- Slight Chance Slight Chance --
Thunder Storm -- -- -- -- -- -- -- -- -- --
WIND CHILL -- -- -- -- -- -- -- -- -- --
SPRAY COND
DRY COND
LIVESTOCK HEATSTRESS 75.00 77.68 78.80 79.27 80.29 81.08 80.91 81.25 81.25 80.45



DAY THURSDAY FRIDAY SATURDAY SUNDAY MONDAY TUESDAY WEDNESDAY
CDT 6HR 7P 8P 9P 10P 11P MIDN 1A 2A 3A 4A 5A 6A 7A 8A 9A 10A 11A NOON 1P 2P 3P 4P 5P 6P 7P 8P 10P 1A 4A 7A 10A 1P 4P 7P 1A 7A 1P 7P 1A 7A 1P 7P 1A 7A 1P 7P 1A 7A 1P 7P
MAX/MIN -- -- -- -- -- -- -- -- -- -- -- -- 70° -- -- -- -- -- -- -- -- -- -- 90° -- -- -- -- -- 70° -- -- 88° -- -- 70° 88° -- -- 70° 90° -- -- 72° 92° -- -- 72° 92° --
TEMP 85° 81° 79° 77° 76° 74° 72° 72° 72° 72° 72° 72° 74° 77° 81° 83° 85° 86° 88° 88° 88° 88° 88° 88° 85° 81° 76° 72° 72° 74° 81° 85° 85° 83° 72° 74° 85° 83° 72° 74° 88° 85° 76° 76° 90° 86° 76° 76° 90° 86°
SKY COVER 19% 12% 8% 15% 8% 6% 7% 8% 6% 5% 9% 9% 9% 7% 9% 16% 11% 19% 27% 36% 45% 54% 51% 47% 44% 36% 21% 23% 33% 45% 56% 66% 63% 64% 56% 56% 50% 42% 33% 41% 50% 45% 29% 37% 39% 28% 22% 37% 24% 26%
Clouds
DEW PT 70° 70° 70° 72° 70° 70° 70° 70° 70° 70° 70° 70° 72° 72° 72° 72° 72° 72° 72° 72° 70° 70° 70° 72° 72° 72° 72° 72° 72° 72° 72° 72° 72° 72° 72° 72° 72° 72° 72° 74° 72° 72° 74° 74° 72° 74° 74° 74° 74° 74°
RH 58% 67% 73% 82% 84% 89% 93% 96% 96% 96% 96% 93% 90% 81% 74% 67% 62% 61% 58% 56% 55% 55% 55% 59% 65% 71% 84% 96% 96% 96% 74% 65% 62% 69% 100% 96% 65% 66% 100% 96% 61% 65% 93% 94% 57% 65% 93% 93% 61% 67%
POP 12HR 18% -- -- -- -- -- -- -- -- -- -- -- 11% -- -- -- -- -- -- -- -- -- -- -- 35% -- -- -- -- 28% -- -- -- 57% -- 36% -- 53% -- 19% -- 44% -- 23% -- 40% -- 22% -- 35%
RAIN/SNOW (liq.equ) 0.00in -- -- -- -- -- 0.00in -- -- -- -- -- 0.00in -- -- -- -- -- 0.05in -- -- -- -- -- 0.00in -- -- 0.00in -- 0.00in -- 0.03in -- 0.03in 0.11in 0.02in -- -- -- -- -- -- -- -- -- -- -- -- -- --
SNOWFALL 0in -- -- -- -- -- 0in -- -- -- -- -- 0in -- -- -- -- -- 0in -- -- -- -- -- 0in -- -- 0in -- 0in -- 0in -- 0in 0in 0in -- -- -- -- -- -- -- -- -- -- -- -- -- --
WIND SPEED(MPH) 6 5 2 2 2 2 2 1 1 1 1 1 2 5 6 6 6 6 6 6 5 5 5 2 2 2 1 1 0 0 2 2 2 1 0 0 2 1 0 0 2 1 1 1 7 2 1 5 6 2
WIND DIR S S S S S S S S S S S S S SW SW SW SW SW SW SW SW SW SW SW S S S S SW SW SW SW SW S S SW SW SE S S SW S S SW SW SW S SW SW SW
HeatIndex 90 85 83 77 76 74 72 72 72 72 72 72 74 77 85 89 92 93 94 96 95 95 95 94 90 86 76 72 72 74 87 93 92 88 72 74 93 89 72 74 95 93 76 76 98 95 76 76 100 96
Rain Showers -- -- -- -- -- -- -- -- -- -- -- -- Slight Chance Slight Chance Slight Chance Slight Chance Slight Chance Slight Chance Chance Chance Chance Chance Chance Chance Chance Chance Chance Chance Chance Chance Chance Likely Likely Chance Chance Chance Chance Slight Chance Slight Chance Chance Chance Slight Chance Slight Chance Chance Chance Slight Chance Slight Chance Slight Chance Chance Chance
Thunder Storm -- -- -- -- -- -- -- -- -- -- -- -- Slight Chance Slight Chance Slight Chance Slight Chance Slight Chance Slight Chance Chance Chance Chance Chance Chance Chance Chance Chance Chance Chance Chance Slight Chance Chance Chance Chance Chance Slight Chance Slight Chance Chance Slight Chance -- Slight Chance Chance Slight Chance -- Slight Chance Chance Slight Chance Slight Chance Slight Chance Chance Chance
WIND CHILL -- -- -- -- -- -- -- -- -- -- -- -- -- -- -- -- -- -- -- -- -- -- -- -- -- -- -- -- -- -- -- -- -- -- -- -- -- -- -- -- -- -- -- -- -- -- -- -- -- --
SPRAY COND
DRY COND
LIVESTOCK HEATSTRESS 78.95 76.97 76.00 75.20 74.49 73.08 71.49 71.71 71.71 71.71 71.71 71.49 73.16 75.10 77.83 78.61 79.52 80.17 81.25 80.93 80.77 80.77 80.77 81.42 79.96 77.46 74.49 71.71 71.71 73.67 77.83 79.96 79.52 78.87 72.00 73.67 79.96 78.47 72.00 73.67 81.74 79.96 75.34 75.43 82.62 80.76 75.34 75.34 83.31 81.06

Click on individual weather variable above in left-hand column (ie., TEMP, RH, QPF 12HR) to view state forecast maps






NWS 48 Hr. Forecast Maps,

Regional Hourly Observations For HOPKINS County, Kentucky
Issued at 900 AM EDT THU JUN 30 2022
WESTERN AND SOUTH CENTRAL KENTUCKY
  
CITY           SKY/WX    TMP DP  RH WIND       PRES   REMARKS
PADUCAH        SUNNY     74  59  59 CALM      30.14R                  
HENDERSON      MOSUNNY   70  58  65 E3        30.17R                  
OWENSBORO      SUNNY     72  56  57 S7        30.17R                  
HOPKINSVILLE   SUNNY     77  65  65 S7        30.16R                  
BOWLING GREEN  SUNNY     75  59  57 CALM      30.19R                  
GLASGOW        SUNNY     77  66  69 S3        30.20R                  


Current NOWCAST not available:
Nowcasts are not issued routinely during fair weather. Only when
precipitation or other significant weather is occuring in this county will these
forecasts be issued. Currently, there is no short term forecast in effect.


Fire Weather Forecast For HOPKINS County, KY
Provided by the National Weather Service:

Issued at: Thu Jun 30 09:05:01 EDT 2022

Precip Type           None         None         Tstms        
Chance Precip (%)     30           10           40           
High Temperature(F)   88-92                     88-92        
Minimum RH(%)         48-53                     54-59        
Low Temperature(F)                 67-71                     
Maximum RH(%)                      95-100                    
Temp (24h Trend)      91 (+3)      69 (+6)      91           
RH % (24h Trend)      51 (+29)     98 (+19)     57           
20FTWND-AM(MPH)       Lgt/Var                   SW 3-7       
20FTWND-PM(MPH)       S 4-8        Lgt/Var      SW 3-7       
Precip Amount         0.00         0.00         0.06         
Precip Duration       0            0            2            
Precip Begin          3 PM                      7 AM         
Precip End            7 PM                      Continuing   
1700'Mix Hgt Temp     86                        84           
Mixing Hgt(FT-AGL)    5960                      5084         
Transport Wind (KTS)  S  7                      SW  4        
Transport Wind (M/S)  S  4                      SW  2        
Vent Rate (M/S-M)     6555                      3195         
Dispersion Index      Fair to Good              Fair         
LAL                   2            1            3            
Haines Index          4            3            4            
Stability(DSI)        MOD UNSTBL   N/A          MOD UNSTBL   

Remarks...None.

.Forecast for days 3 through 7...

.FRIDAY NIGHT...Partly cloudy with a 20 percent chance of showers
and thunderstorms. Lows in the lower 70s. South winds around
5 mph. 
.SATURDAY...Partly sunny with a 50 percent chance of showers and
thunderstorms. Highs in the upper 80s. Southwest winds around
5 mph. 
.SATURDAY NIGHT...Mostly cloudy with a 40 percent chance of
showers and thunderstorms. Lows in the lower 70s. South winds
around 5 mph. 
.SUNDAY...Partly sunny with a 50 percent chance of showers and
thunderstorms. Highs in the upper 80s. Southwest winds around
5 mph. 
.SUNDAY NIGHT...Partly cloudy with a 20 percent chance of showers
and thunderstorms. Lows in the lower 70s. South winds around
5 mph. 
.INDEPENDENCE DAY...Mostly sunny with a 50 percent chance of
showers and thunderstorms. Highs around 90. South winds around
5 mph. 
.MONDAY NIGHT...Partly cloudy with a 20 percent chance of showers
and thunderstorms. Lows in the lower 70s. South winds around
5 mph. 
.TUESDAY...Mostly sunny with a 40 percent chance of showers and
thunderstorms. Highs in the lower 90s. Southwest winds 5 to
10 mph. 
.TUESDAY NIGHT...Partly cloudy with a 20 percent chance of
showers and thunderstorms. Lows in the lower 70s. Southwest winds
around 5 mph. 
.WEDNESDAY...Mostly sunny with a 40 percent chance of showers and
thunderstorms. Highs in the lower 90s. Southwest winds 5 to
10 mph. 

SPC's Fire Weather Web Tool (Excellent!), SPC's Fire Weather Outlooks, NWS Fire Weather WEB, Fire Danger Class Map,
Keetch-Byram Drought Index, ROMAN Web, Haines Index ,
WFAS's 10-hr Dead Fuel Moist., WFAS's 100-hr Dead Fuel Moist., Probablity of Ignition, Visual blackness Map, Palmer Drought Index, HPC's Rainfall Forecast Maps


Hazardous Weather Outlook For HOPKINS County, Kentucky
446 AM CDT Thu Jun 30 2022

 DAY ONE  Today and Tonight

Isolated thunderstorms are possible this afternoon across 
portions of west Kentucky and extreme southeast Missouri.
Lightning and brief heavy rain are the main concerns.

 DAYS TWO THROUGH SEVEN  Friday through Wednesday

There will be a daily chance of scattered thunderstorms, 
primarily from the afternoon into the early evening hours. 
Lightning and locally heavy rain will be the primary hazards. 

Heat index values of 100 to 105 degrees are expected Monday in 
southeast Missouri and across the entire region Tuesday and 
Wednesday.

 SPOTTER INFORMATION STATEMENT  

Spotter activation will not be needed.

Latest HOPKINS County, Kentucky Watches, Warnings and Advisories.
Additional Drought Info.: UKAWC Drought Page, Kentucky Drought Watch


7-Day Forecast For HOPKINS County, KY

TODAY
Sunny in the morning, then partly sunny with a 20 percent chance of showers in the afternoon. Highs in the lower 90s. South winds around 5 mph.

TONIGHT
Partly cloudy in the evening then clearing. Lows around 70. South winds around 5 mph.

FRIDAY
Partly sunny with a 40 percent chance of showers and thunderstorms. Highs in the lower 90s. Southwest winds around 5 mph.

FRIDAY NIGHT
Partly cloudy with a 40 percent chance of showers and thunderstorms. Lows in the lower 70s. South winds 5 mph in the evening becoming calm after midnight.

SATURDAY
Partly sunny. A chance of showers and thunderstorms in the morning, then showers likely and a chance of thunderstorms in the afternoon. Highs in the upper 80s. Southwest winds 5 mph. Chance of precipitation 60 percent.

SATURDAY NIGHT
Partly cloudy with a 40 percent chance of showers and thunderstorms. Lows in the lower 70s.

SUNDAY
Partly sunny. Showers likely and a chance of thunderstorms in the morning, then a chance of showers and thunderstorms in the afternoon. Highs in the upper 80s. Chance of precipitation 60 percent.

SUNDAY NIGHT
Partly cloudy. A slight chance of showers and thunderstorms in the evening, then a slight chance of showers after midnight. Lows in the lower 70s. Chance of precipitation 20 percent.

INDEPENDENCE DAY
Partly sunny with a 40 percent chance of showers and thunderstorms. Highs in the lower 90s.

MONDAY NIGHT
Partly cloudy. A slight chance of showers and thunderstorms in the evening, then a slight chance of showers after midnight. Lows in the lower 70s. Chance of precipitation 20 percent.

TUESDAY
Partly sunny with a 40 percent chance of showers and thunderstorms. Highs in the lower 90s.

TUESDAY NIGHT
Mostly clear with a 20 percent chance of showers and thunderstorms. Lows in the lower 70s.

WEDNESDAY
Mostly sunny with a 40 percent chance of showers and thunderstorms. Highs in the lower 90s.

Ag Weather Center, Department of Biosystems & Agricultural Engineering, University of Kentucky